Starlink 32380

operational
NORAD ID: 61069 Int'l Des: 2024-164 Owner: SPXS Country: US Constellation: starlink
LEOCIRCULAR

About Starlink 32380

Description loading...

Live Position

Loading 3D Globe...

Upcoming Passes

Altitude History

Altitude vs Time

uPlot chart will show altitude changes over time

Two-Line Element Set

1 61069U 24164V 26036.99105622 -.00000018 00000-0 11532-4 0 9996
2 61069 53.1596 238.4056 0001432 87.0076 273.1089 15.30191621 78621
Epoch: Feb 5, 2026 • Age: 10 hours

Current Status

Altitude 480.3 km
Velocity 7.63 km/s
Sub-Earth Point 50.88°N, 23.59°E
Launch Date Sep 13, 2024
Age 1.3 years
Type internet

Technical Details

Classification Payload
Mass 730.00 kg
Dry Mass 700.00 kg
Total Mass 730.00 kg
Length 0.30 m
Diameter 4.10 m
Span 29.00 m
Shape Box + pan
Manufacturer SPXS
Bus Type Starlink V2M
Phase Status In Orbit
Owner/State SPXS/US

Large Constellations

Loading constellations...